Hauptseite
METAR-TAF:

METAR-TAF

Flughäfen :

Turin, Italien

Flugplatz Turin-Aeritalia

Breite: 45-05-20N, Länge: 007-36-20E, Höhe: 288 m

Beobachtung

Neuester Wetterbericht von vor 4 Stunden und 13 Minuten, um 15:50 UTC
Windstille
Temperatur 8°C
Luftfeuchtigkeit 42%
Luftdruck 1012 hPa
Sichtweite 10 km oder mehr
keine Wolken unter 1500 m und keine Kumulonimbus oder Gewitterwolken

METAR: LIMA 221550Z 00000KT CAVOK 08/M04 Q1012

Zeit: 21:03 (20:03 UTC)


TAF: fehlend

Wetterbeobachtungen und Prognosen von mehr als 4000 Flughäfen (METAR und TAF Bericht).

Die verfügbaren Stationen werden durch gelbe und rote Markierungen auf der Karte dargestellt.

Führen Sie die Maus auf sie, um den Namen der Station zu sehen.

Darauf klicken, um die Beobachtung von Wetterbeobachtungen und Prognosen zu sehen.

Um die Karte zu ändern : klicken Sie auf den grünen Tasten mit einem schwarzen Kreuz Zum Vergrößern, auf den grünen Button mit einem Gedankenstrich zu verkleinern, oder auf die grünen Pfeile für benachbarte Karten.


METAR-TAF: